Coraopolis, PA

11:39 AM EDT on July 29, 2016 (GMT -0400)
Moon Township | | Change Station

Elev 1073 ft 40.52 °N, 80.20 °W | Updated 8 minutes ago

Mostly Cloudy
Mostly Cloudy
80.3 °F
Feels Like 84 °F
N
0.0
Wind Variable Wind from North

Today
High -- | Low -- °F
--% Chance of Precip.
Yesterday
High -- | Low -- °F
Precip. -- in
Pressure 29.98 in
Visibility 10.0 miles
Clouds Scattered Clouds 1400 ft
Mostly Cloudy 2000 ft
Heat Index 84 °F
Dew Point 72 °F
Humidity 76%
Rainfall Not available.
Snow Depth Not available.
6:15 AM 8:38 PM
Waning Crescent, 21% visible
SPECI KPIT 291527Z 00000KT 10SM SCT014 BKN020 24/19 A2998 RMK AO2 T02390189
Pressure 29.98 in
Visibility 10.0 miles
Clouds Scattered Clouds 1400 ft
Mostly Cloudy 2000 ft
Heat Index 84 °F
Dew Point 72 °F
Humidity 76%
Rainfall Not available.
Snow Depth Not available.
6:15 AM 8:38 PM
Waning Crescent, 21% visible
SPECI KPIT 291527Z 00000KT 10SM SCT014 BKN020 24/19 A2998 RMK AO2 T02390189

10-Day Weather Forecast

Almanac

Astronomy

Jul. 29, 2016 Rise Set
Actual Time
Civil Twilight
Nautical Twilight
Astronomical Twilight
Moon
Length of Visible Light
Length of Day
Tomorrow will be .
, % of the Moon is Illuminated

Today's Extremes

State Highs State Lows

Community

WunderPhotos

Upload Photos

1,928,347 photos uploaded!

WunderBlog® & News

Nearby

Air Quality

  Air Quality AQ Index Pollutant
Not available.

Snow Depth

Station Depth Elevation

Earthquake Activity

City Distance Mag. Time & Date
Minimum magnitude displayed is 2.5.

Coastal Water Temperatures

Place Temperature

Stations

Nearby Weather Stations

Station Location Temp. Windchill Dew Point Humidity Wind Precip. Elev Updated Type
                   

Watches & Warnings

There are currently no watches in effect.